Regional Weather Roundup
Issued by NWS State College, PA

Home | Current Version | Previous Version | Graphics & Text | Print | Product List | Glossary On
Versions: 1 2 3 4 5 6 7 8 9 10 11 12 13 14 15 16 17 18 19 20 21 22 23 24 25 26 27 28 29 30 31 32 33 34 35 36 37 38 39 40 41 42 43 44 45 46 47 48 49 50
000
ASUS41 KCTP 241710
RWRCTP

REGIONAL WEATHER ROUNDUP
NATIONAL WEATHER SERVICE STATE COLLEGE PA
100 PM EDT THU MAY 24 2018

Note: "fair" indicates few or no clouds below 12,000 feet with no
significant weather and/or obstructions to visibility.

* = STATION THAT DOES NOT REPORT PRECIPITATION /E.G. RAIN...SNOW...ETC/
    THUNDER OR FOG.

PAZ002>004-007>009-013>016-020>023-029>032-241800-
WESTERN PENNSYLVANIA

CITY           SKY/WX    TMP DP  RH WIND       PRES   REMARKS
ERIE           FAIR      77  49  37 W8        30.22F
MEADVILLE      FAIR      76  42  29 CALM      30.24F
FRANKLIN*      FAIR      77  49  37 CALM      30.25F
NEW CASTLE     FAIR      78  50  37 E5        30.25F
BEAVER COUNTY  SUNNY     77  48  36 CALM      30.24F
BUTLER*        FAIR      77  50  38 VRB5      30.24F
PITTSBURGH INT FAIR      79  48  33 VRB5      30.23F
PITTSBURGH     FAIR      77  51  40 VRB5      30.23F
INDIANA*       SUNNY     77  50  38 VRB3      30.27S
LATROBE        SUNNY     77  48  36 VRB5      30.24F
WASHINGTON CO* FAIR      77  53  43 E7        30.26F
$$

PAZ004>006-010>012-017>019-024>028-033>037-041-042-045-046-049>053-241800-
CENTRAL PENNSYLVANIA

CITY           SKY/WX    TMP DP  RH WIND       PRES   REMARKS
BRADFORD       FAIR      75  43  31 VRB3      30.24F
DUBOIS         FAIR      78  50  37 VRB7      30.23F
CLEARFIELD     FAIR      79  46  31 E7        30.22F
JOHNSTOWN      FAIR      74  46  36 VRB7      30.25F
ALTOONA        FAIR      79  48  33 VRB5      30.23F
STATE COLLEGE  SUNNY     77  48  36 CALM      30.21F
WILLIAMSPORT   FAIR      79  47  32 SW7       30.15F
SELINSGROVE    FAIR      78  54  43 CALM      30.18F
FT INDIANTOWN  SUNNY     79  46  31 N9        30.17F
CAPITAL CITY   FAIR      81  46  29 NW9       30.18F
HARRISBURG     FAIR      79  51  37 W5        30.17F
YORK           FAIR      79  50  36 VRB3      30.19F
$$

PAZ038>040-043-044-047-048-054-055-060>062-067>071-241800-
EASTERN PENNSYLVANIA

CITY           SKY/WX    TMP DP  RH WIND       PRES   REMARKS
SCRANTON       FAIR      75  48  38 W6        30.17F
MOUNT POCONO   FAIR      73  44  35 NW12G21   30.19F
ALLENTOWN      FAIR      82  48  30 N10       30.14F
QUAKERTOWN*    SUNNY     79  50  36 CALM      30.16F
READING        FAIR      79  52  38 N6        30.15F
LANCASTER      FAIR      80  53  39 VRB6      30.18F
COATESVILLE    FAIR      77  46  33 N6        30.19S
POTTSTOWN      FAIR      78  48  34 NW7       30.17F
BLUE BELL      FAIR      77  46  33 NW3       30.17F
DOYLESTOWN     FAIR      80  43  26 VRB7      30.14F
WILLOW GROVE   NOT AVBL
NORTH PHILA    FAIR      81  44  27 NE7       30.16F
PHILADELPHIA   FAIR      79  43  27 N8        30.15F
$$



USA.gov is the U.S. government's official web portal to all federal, state and local government web resources and services.